Wind_Speed
8 9 10 10 10 10 9 7 8 8 7 6 7 7 7 6 5 5 5 5 6 8 11 14 18 22 20 17 15 14 12 10 8 7 6 6 4 3 3 7 12 13 13
5 6 8 9 10 10 9 8 8 7 6 7 8 8 8 7 6 5 5 6 7 7 8 12 18 21 21 20 17 16 15 11 10 9 8 7 5 3 2 4 8 12 14
4 5 8 9 10 10 10 8 7 7 6 7 8 8 8 8 6 4 5 6 6 5 3 6 16 21 22 21 19 18 18 15 12 11 9 7 6 5 4 3 4 6 10
2 4 8 10 10 11 10 7 6 6 6 7 9 9 8 7 6 4 4 5 3 2 3 3 11 20 23 21 19 19 20 18 14 12 9 7 6 6 5 5 4 4 7
0 3 7 9 10 11 10 7 5 6 6 8 10 10 8 6 5 4 4 3 2 2 0 3 5 13 18 16 14 13 15 18 15 13 10 8 6 5 5 5 6 7 8
1 3 6 10 11 11 10 8 7 6 7 9 10 11 9 7 5 5 4 3 4 5 4 4 7 10 11 12 11 11 12 13 12 12 10 8 6 6 7 6 7 9 9
1 3 6 10 12 12 11 9 8 8 9 10 11 11 10 8 6 6 6 6 7 8 7 6 7 8 9 9 10 11 12 11 10 9 8 6 5 7 9 9 10 11 12
2 2 5 9 12 12 12 9 8 9 11 12 12 11 10 9 8 7 7 8 9 9 10 9 8 9 9 9 10 11 12 13 11 10 9 8 7 8 9 11 12 12 12
2 2 5 8 10 11 11 9 8 9 11 12 12 11 10 9 8 9 9 10 10 10 10 12 12 10 10 10 11 11 13 14 13 12 11 9 8 8 9 12 12 12 11
2 3 6 7 8 10 10 9 9 10 12 14 13 12 11 10 9 10 11 11 12 12 12 12 13 14 14 13 14 14 14 15 15 14 12 11 9 8 9 12 14 13 11
2 3 5 6 8 10 11 10 10 11 13 15 15 13 12 11 11 11 12 11 12 13 13 12 12 15 17 17 17 17 17 17 16 15 13 12 11 10 9 12 14 14 13
3 4 5 7 9 10 12 12 12 12 14 15 16 15 14 13 12 13 13 12 11 11 11 10 11 13 15 17 18 19 19 19 18 16 14 13 13 12 12 13 15 17 15
4 6 8 8 8 10 13 13 12 13 14 16 17 17 17 15 14 14 14 13 11 11 11 11 12 12 13 15 17 19 20 20 19 18 16 15 15 14 14 15 17 19 16
6 7 10 9 9 11 13 14 12 13 15 18 19 18 17 15 14 14 14 13 12 11 11 12 12 12 12 13 16 20 21 22 20 19 18 18 17 16 15 17 18 18 17
8 9 11 11 12 14 15 15 15 14 16 18 19 17 15 15 14 15 15 13 12 11 11 12 11 11 11 11 13 16 20 21 20 19 18 17 16 15 16 18 19 17 17
13 14 14 14 16 16 17 17 16 16 17 17 17 15 15 14 13 14 16 14 13 14 13 13 12 11 11 12 12 13 16 20 20 18 16 15 14 14 16 17 20 20 19
17 17 17 17 18 18 17 18 18 18 18 17 16 15 15 14 13 13 15 15 14 15 15 13 12 12 13 13 13 14 15 17 19 18 17 16 15 14 16 17 17 19 19
19 18 18 20 20 20 20 19 19 20 19 17 16 16 15 14 13 12 12 13 15 15 14 12 11 12 13 13 13 14 15 16 16 16 17 17 16 16 17 18 17 18 18
20 19 19 21 22 22 22 21 20 21 20 17 17 18 18 16 14 13 12 13 15 16 14 12 12 12 13 13 13 13 14 16 15 15 15 17 18 18 18 18 17 18 18
20 20 21 22 24 24 23 21 21 21 21 21 19 19 20 19 17 16 15 14 15 16 16 14 13 13 13 13 13 12 12 15 15 14 14 16 19 20 20 19 18 17 16
21 22 23 24 25 25 24 22 22 21 22 24 22 20 22 22 21 18 17 15 15 15 16 15 15 15 15 14 14 12 10 11 13 13 14 16 18 21 22 21 19 18 17
23 25 25 25 25 25 25 25 24 24 24 25 25 24 24 25 24 21 19 18 16 14 15 16 17 18 17 16 15 14 12 10 11 11 12 15 17 19 21 22 21 20 18
25 27 26 26 27 27 28 28 28 28 29 30 30 30 28 28 27 25 22 21 19 16 16 17 19 21 19 17 17 16 13 12 11 10 11 12 14 16 18 21 22 21 20
25 27 27 29 30 29 30 31 31 31 32 32 31 31 30 29 28 25 21 21 20 19 18 18 20 22 22 20 20 18 15 14 13 12 11 11 12 14 15 18 20 20 20
27 29 30 32 31 31 31 31 32 32 33 33 31 30 28 27 27 25 21 21 21 22 23 22 22 24 23 24 24 22 19 17 16 14 13 13 13 14 14 15 16 17 18
28 30 30 30 30 30 30 30 31 32 32 31 29 27 25 24 24 26 25 23 24 26 28 27 27 28 26 25 26 26 23 22 20 17 16 16 16 16 15 15 16 16 16
Wind_Direction
67 70 53 44 38 33 32 19 2 355 342 340 351 353 348 342 327 317 309 299 293 288 274 240 223 198 188 188 182 180 183 181 180 167 153 154 159 177 189 207 210 214 219
59 64 45 32 26 24 25 24 16 357 335 328 340 350 350 344 330 318 304 296 299 308 294 228 212 199 190 193 194 193 190 185 180 173 163 163 179 187 163 171 200 215 220
39 50 34 20 16 14 13 16 18 1 331 315 327 343 348 344 335 318 300 295 298 319 9 185 202 206 201 201 204 201 194 187 182 181 174 170 178 189 197 199 201 194 198
37 41 24 13 12 12 7 6 10 360 327 303 311 328 339 341 347 330 301 293 288 326 44 134 204 214 209 206 210 207 199 191 187 189 186 182 179 188 206 220 217 195 195
351 11 5 3 3 7 2 360 3 351 329 303 304 318 329 335 341 339 308 285 257 259 150 117 171 195 194 190 187 183 188 188 185 184 185 184 185 194 215 229 233 234 230
291 343 354 356 355 356 353 353 359 351 333 313 308 317 322 320 312 311 283 260 236 229 216 171 152 155 158 161 157 157 160 171 173 175 182 187 202 223 235 243 254 252 245
278 342 354 354 355 353 347 345 352 354 345 328 316 316 315 306 297 298 281 255 235 227 224 207 181 169 164 161 161 165 170 175 179 188 202 217 234 249 249 250 259 258 245
243 343 352 353 357 354 348 343 343 348 347 339 325 317 311 301 288 283 279 264 245 229 226 223 212 196 187 179 175 177 184 192 199 208 223 239 249 253 245 242 248 251 233
240 322 341 348 353 354 349 341 334 336 338 336 326 317 311 301 285 272 270 268 257 240 232 231 229 217 205 199 194 195 200 206 214 223 235 247 253 255 246 232 230 235 225
245 328 338 340 339 343 341 327 320 320 328 330 328 316 309 300 286 272 269 267 263 249 236 232 234 232 224 213 207 207 212 218 225 232 240 249 255 255 244 224 215 218 210
246 320 340 337 334 335 339 328 314 310 317 321 322 316 309 300 287 273 270 268 265 253 240 233 235 237 233 228 225 223 222 224 231 237 243 250 255 252 236 223 212 203 193
254 303 322 322 328 341 344 339 323 312 309 310 310 311 309 303 289 274 270 270 269 258 242 231 232 234 234 234 232 230 227 226 232 240 246 253 255 250 235 224 209 196 187
276 300 306 307 320 336 340 335 329 313 308 308 304 302 305 304 290 274 268 267 267 257 242 228 222 226 233 234 231 230 229 227 233 241 250 254 253 250 236 223 205 191 187
275 284 290 296 315 329 334 334 329 319 309 309 304 299 300 301 291 275 264 260 261 252 242 231 225 230 234 240 240 235 231 232 236 244 250 251 251 247 234 222 208 194 193
275 280 285 290 306 317 323 329 331 326 312 305 301 295 292 295 288 274 264 257 251 243 240 233 230 228 229 241 242 234 229 227 231 239 245 248 246 241 231 221 216 208 202
281 285 282 289 302 309 313 320 326 323 314 303 293 289 294 297 288 275 265 256 245 238 237 234 230 227 230 239 238 229 224 224 227 232 239 242 237 230 219 216 216 216 212
286 289 285 290 300 302 306 312 318 318 313 299 286 289 299 307 300 282 269 256 245 240 238 237 234 227 230 234 233 228 225 224 227 231 235 235 228 223 216 215 215 218 219
285 287 288 292 297 298 300 304 310 311 307 291 276 284 291 302 299 286 274 261 251 246 242 240 235 226 229 232 231 230 229 226 226 228 232 230 222 220 220 220 218 217 217
285 285 286 288 292 293 293 294 300 304 300 290 273 282 283 285 289 276 270 265 256 250 244 237 226 223 228 232 236 236 235 230 226 224 229 227 218 215 217 218 217 214 215
287 285 285 282 283 284 284 284 287 295 291 286 277 280 283 276 279 269 258 263 257 250 244 240 227 224 227 235 237 233 232 228 226 221 221 220 216 212 211 214 216 212 212
287 287 288 282 281 281 280 279 280 284 284 281 277 278 280 275 271 265 248 252 253 247 244 244 236 227 226 231 234 236 230 220 220 219 218 217 216 214 211 212 214 212 212
284 285 287 285 284 284 285 284 282 279 277 277 277 276 277 273 266 258 242 240 246 247 245 246 243 233 229 229 233 233 230 221 216 216 218 219 220 219 217 215 215 215 216
283 285 289 289 291 290 289 287 284 280 275 274 275 275 274 270 264 258 245 236 240 247 249 248 247 239 233 229 226 223 226 229 228 226 221 220 222 222 222 222 221 222 224
283 288 292 294 295 292 289 286 284 281 278 276 274 275 272 264 259 257 252 242 240 250 255 253 247 242 235 229 223 222 224 229 230 230 230 225 222 221 221 222 225 227 231
287 291 293 293 293 291 288 286 284 282 279 279 277 274 270 262 257 258 257 250 245 253 258 256 248 240 236 230 224 224 226 231 231 230 235 239 235 229 224 222 222 226 230
291 294 295 295 294 292 288 286 283 281 279 278 276 272 269 264 257 256 256 255 252 256 258 253 248 238 234 233 228 226 227 234 237 236 238 244 245 241 236 231 228 230 233
Height
5898 5897 5895 5893 5891 5889 5887 5886 5884 5883 5881 5881 5880 5879 5878 5877 5876 5875 5874 5873 5872 5871 5871 5871 5873 5876 5880 5882 5883 5884 5886 5887 5888 5889 5889 5889 5890 5890 5890 5890 5892 5894 5895
5898 5897 5896 5894 5892 5890 5888 5886 5884 5883 5882 5881 5880 5879 5878 5877 5876 5875 5874 5873 5871 5870 5868 5867 5870 5874 5878 5881 5882 5883 5885 5886 5888 5888 5889 5889 5889 5890 5890 5890 5891 5892 5893
5898 5897 5896 5894 5892 5890 5888 5886 5884 5883 5882 5881 5880 5879 5878 5876 5875 5874 5873 5872 5871 5869 5867 5867 5869 5872 5875 5878 5880 5882 5884 5885 5887 5888 5889 5889 5889 5890 5890 5890 5890 5891 5892
5898 5897 5896 5893 5891 5889 5888 5886 5884 5883 5882 5880 5879 5879 5877 5876 5874 5873 5872 5871 5870 5869 5868 5868 5869 5870 5873 5876 5878 5880 5882 5884 5886 5887 5888 5888 5889 5889 5890 5890 5890 5891 5892
5897 5896 5895 5893 5890 5889 5887 5886 5884 5883 5881 5880 5879 5878 5877 5876 5874 5873 5871 5870 5870 5869 5869 5870 5870 5870 5872 5874 5877 5878 5880 5883 5885 5886 5887 5888 5888 5889 5889 5890 5890 5890 5892
5896 5895 5894 5892 5889 5888 5886 5885 5884 5882 5881 5879 5878 5877 5875 5875 5874 5872 5871 5870 5869 5869 5870 5871 5872 5872 5873 5875 5877 5879 5881 5883 5884 5886 5886 5887 5888 5889 5889 5889 5890 5890 5891
5895 5895 5893 5891 5889 5887 5886 5884 5883 5882 5880 5879 5877 5875 5874 5873 5873 5872 5871 5870 5869 5869 5870 5872 5873 5874 5875 5876 5878 5880 5881 5883 5885 5886 5886 5886 5887 5888 5888 5888 5889 5890 5890
5894 5894 5892 5891 5889 5887 5885 5884 5882 5881 5879 5877 5875 5874 5872 5871 5871 5871 5869 5868 5868 5869 5870 5872 5873 5874 5876 5877 5878 5880 5881 5882 5884 5885 5885 5886 5886 5886 5887 5887 5888 5888 5888
5893 5892 5891 5889 5888 5886 5884 5883 5881 5879 5877 5875 5874 5872 5870 5869 5869 5868 5867 5867 5867 5867 5869 5871 5872 5873 5874 5875 5877 5879 5880 5881 5882 5883 5883 5884 5884 5884 5885 5885 5886 5887 5887
5892 5891 5889 5888 5886 5884 5883 5881 5879 5878 5876 5874 5872 5870 5868 5867 5866 5866 5865 5865 5864 5864 5866 5868 5870 5871 5872 5873 5875 5876 5878 5880 5880 5881 5882 5882 5883 5883 5883 5883 5884 5886 5886
5890 5889 5887 5886 5885 5883 5881 5879 5877 5876 5874 5872 5870 5868 5866 5865 5864 5863 5862 5862 5862 5862 5863 5864 5866 5868 5869 5871 5872 5874 5875 5877 5878 5879 5879 5880 5880 5880 5881 5881 5882 5884 5886
5888 5887 5886 5885 5884 5882 5880 5878 5876 5874 5872 5870 5867 5866 5864 5863 5862 5861 5860 5859 5860 5860 5861 5862 5863 5865 5866 5868 5869 5871 5872 5873 5874 5876 5876 5877 5878 5878 5879 5880 5881 5883 5885
5886 5885 5884 5883 5882 5880 5879 5876 5874 5872 5869 5867 5865 5863 5862 5860 5859 5858 5857 5856 5857 5858 5858 5859 5860 5862 5863 5865 5866 5867 5868 5869 5871 5872 5873 5875 5876 5877 5877 5878 5880 5882 5884
5884 5883 5882 5881 5879 5878 5876 5874 5872 5870 5867 5865 5862 5860 5859 5857 5856 5856 5855 5854 5854 5855 5856 5857 5857 5858 5860 5861 5862 5863 5864 5866 5868 5869 5870 5871 5872 5874 5875 5876 5878 5881 5883
5881 5881 5880 5879 5877 5875 5873 5871 5869 5867 5865 5862 5860 5858 5856 5854 5853 5853 5853 5852 5852 5853 5853 5854 5855 5856 5857 5858 5859 5860 5861 5862 5864 5865 5867 5867 5869 5870 5872 5874 5877 5879 5881
5878 5878 5877 5876 5874 5872 5870 5868 5866 5864 5862 5860 5857 5855 5854 5852 5851 5850 5850 5850 5850 5851 5851 5852 5853 5854 5855 5856 5857 5858 5858 5860 5861 5862 5864 5865 5866 5867 5869 5872 5874 5876 5879
5875 5874 5874 5872 5870 5868 5866 5864 5862 5860 5859 5857 5854 5853 5851 5849 5848 5848 5848 5848 5848 5849 5850 5850 5851 5851 5852 5853 5855 5856 5856 5857 5858 5859 5861 5862 5864 5866 5868 5870 5872 5874 5877
5871 5871 5870 5869 5867 5865 5863 5861 5858 5857 5856 5854 5851 5850 5848 5847 5845 5845 5845 5846 5846 5847 5847 5848 5849 5849 5850 5851 5852 5853 5854 5855 5855 5857 5858 5860 5862 5864 5866 5868 5870 5872 5874
5868 5867 5866 5864 5862 5861 5859 5857 5854 5853 5852 5851 5849 5846 5845 5844 5843 5842 5842 5842 5843 5844 5845 5845 5846 5847 5849 5850 5850 5851 5852 5853 5853 5854 5856 5858 5860 5862 5864 5866 5868 5870 5872
5864 5863 5861 5859 5857 5856 5854 5853 5851 5849 5848 5847 5846 5843 5842 5841 5840 5839 5839 5839 5839 5841 5843 5843 5844 5845 5846 5848 5849 5849 5849 5850 5851 5852 5853 5855 5857 5859 5861 5864 5866 5868 5870
5859 5858 5856 5855 5853 5852 5850 5849 5847 5845 5844 5843 5843 5840 5838 5837 5836 5835 5835 5835 5835 5837 5839 5840 5842 5843 5844 5845 5847 5848 5847 5848 5849 5850 5851 5852 5854 5856 5858 5861 5863 5865 5867
5854 5852 5851 5850 5848 5846 5845 5844 5842 5840 5839 5837 5837 5836 5834 5832 5831 5830 5831 5831 5832 5833 5835 5837 5838 5840 5841 5842 5844 5846 5846 5848 5848 5848 5849 5850 5852 5853 5855 5858 5860 5862 5864
5848 5847 5845 5843 5842 5840 5839 5838 5836 5835 5833 5831 5830 5829 5828 5827 5825 5825 5824 5826 5827 5829 5831 5833 5835 5836 5837 5839 5841 5843 5845 5846 5847 5847 5848 5849 5850 5852 5854 5856 5857 5859 5861
5843 5841 5839 5837 5835 5834 5833 5831 5830 5829 5826 5824 5823 5821 5820 5819 5818 5818 5818 5820 5822 5824 5826 5828 5830 5832 5834 5835 5837 5839 5841 5843 5845 5846 5847 5847 5848 5849 5851 5853 5856 5858 5860
5836 5834 5833 5831 5830 5828 5825 5824 5823 5821 5818 5817 5816 5814 5812 5812 5812 5813 5813 5814 5816 5819 5821 5823 5825 5827 5830 5831 5833 5835 5837 5839 5841 5844 5845 5846 5846 5847 5849 5850 5852 5855 5857
5829 5828 5827 5826 5824 5822 5819 5817 5815 5813 5811 5809 5808 5807 5806 5806 5806 5807 5808 5809 5810 5812 5814 5816 5819 5821 5824 5826 5828 5831 5833 5835 5837 5840 5842 5843 5844 5845 5846 5848 5849 5851 5853